[[{"header":{"parameterUnit":"m.s-1","parameterCategory":1,"la1":30.2991,"la2":30.254,"lo1":-89.0895,"lo2":-89.0444,"dy":0.0017,"dx":0.0017,"nx":28,"ny":28,"refTime":"2024-10-01T03:00:00:Z","depth":0,"parameterNumber":2,"parameterNumberName":"U-component_of_WINDS"},"data":[0,0,0,0,0,0,0,0,0,0,0,0,0,0,0,0,0,0,0,0,0,0,0,0,0,0,0,0,0,0,0,0,0,0,0,0,0,0,0,0,0,0,0,0,0,0,0,0,0,0,0,0,0,0,0,0,0,0,-0.1984,-0.1984,0,-0.1989,-0.1989,-0.1989,-0.1995,-0.1995,-0.1995,-0.1995,-0.2002,-0.2002,-0.2002,0,0,0,0,0,0,0,0,0,0,0,0,0,-0.1978,-0.1978,-0.1984,-0.1984,-0.1984,-0.1989,-0.1989,-0.1989,-0.1995,-0.1995,-0.1995,-0.1995,-0.2002,-0.2002,-0.2002,0,0,0,0,0,0,0,0,0,0,0,0,0,-0.1982,-0.1978,-0.1984,-0.1987,-0.1988,-0.1989,-0.1989,-0.1989,-0.1995,-0.1995,-0.1995,-0.1995,-0.2001,-0.2002,-0.2002,-0.2,0,0,-0.2002,-0.2002,0,0,0,0,0,0,0,0,-0.1982,-0.1982,-0.1987,-0.1987,-0.1988,-0.1992,-0.199,-0.1993,-0.1995,-0.1992,-0.1995,-0.1995,-0.1998,-0.1999,-0.1999,-0.2001,-0.2001,-0.2002,-0.2002,-0.2002,-0.2002,0,0,0,0,0,0,0,-0.1982,-0.1982,-0.1986,-0.1987,-0.1987,-0.1989,-0.1989,-0.199,-0.1995,-0.1993,-0.1993,-0.1993,-0.1998,-0.1999,-0.2,-0.2001,-0.2002,-0.2002,-0.2002,-0.2002,-0.2001,-0.2001,0,0,0,0,0,0,-0.1981,-0.1982,-0.1986,-0.1986,-0.1985,-0.1989,-0.1989,-0.199,-0.1995,-0.1995,-0.1993,-0.1994,-0.1999,-0.1999,-0.2,-0.1999,-0.2002,-0.2002,-0.2003,-0.2001,-0.2001,-0.2001,0,0,0,0,0,0,-0.1981,-0.1981,-0.1986,-0.1984,-0.1985,-0.1989,-0.1989,-0.199,-0.1991,-0.1995,-0.1996,-0.1993,-0.1999,-0.2,-0.2,-0.1999,-0.2003,-0.2003,-0.2002,-0.2001,-0.2001,-0.1996,0,0,0,0,0,0,-0.198,-0.1981,-0.198,-0.1984,-0.1985,-0.1986,-0.1989,-0.199,-0.1991,-0.1992,-0.1995,-0.1996,-0.1999,-0.2,-0.2,-0.1999,-0.2003,-0.2002,-0.2001,-0.2001,-0.1996,-0.1996,-0.1995,0,0,0,0,0,-0.198,-0.1979,-0.198,-0.1981,-0.1984,-0.1986,-0.1986,-0.1989,-0.1991,-0.1991,-0.1993,-0.1996,-0.1999,-0.2,-0.2,-0.1999,-0.2002,-0.2001,-0.2001,-0.1996,-0.1996,-0.1995,0,0,0,0,0,0,-0.1975,-0.1979,-0.1981,-0.1981,-0.1983,-0.1986,-0.1986,-0.1988,-0.199,-0.199,-0.1995,-0.1995,-0.1995,-0.1997,-0.1998,-0.1998,-0.2001,-0.2,-0.1997,-0.1996,-0.1996,-0.1995,-0.2003,0,0,0,0,0,-0.1974,-0.1975,-0.1978,-0.1978,-0.1979,-0.1982,-0.1983,-0.1985,-0.1987,-0.1988,-0.1991,-0.1993,-0.1995,-0.1995,-0.1997,-0.1996,-0.1997,-0.1996,-0.1995,-0.1995,-0.1995,-0.1994,-0.1994,-0.2,-0.2,-0.2,0,0,-0.1972,-0.1974,-0.1974,-0.1977,-0.1979,-0.1979,-0.1983,-0.1983,-0.1984,-0.1988,-0.1989,-0.1991,-0.1994,-0.1994,-0.1994,-0.1995,-0.1993,-0.1994,-0.1994,-0.1994,-0.1994,-0.1993,-0.1993,-0.2,-0.2,-0.2,0,0,-0.1968,-0.197,-0.1969,-0.1971,-0.1973,-0.1976,-0.1976,-0.1979,-0.198,-0.1981,-0.1984,-0.1985,-0.1987,-0.1989,-0.199,-0.1987,-0.1989,-0.1987,-0.1984,-0.1984,-0.1983,-0.1983,-0.1982,-0.1981,-0.1987,-0.1987,-0.1987,0,-0.1965,-0.1966,-0.1969,-0.1969,-0.197,-0.1974,-0.1974,-0.1975,-0.1978,-0.1979,-0.198,-0.1983,-0.1985,-0.1986,-0.1985,-0.1985,-0.1986,-0.1987,-0.1983,-0.1983,-0.1982,-0.1981,-0.1981,-0.1987,-0.1987,-0.1987,-0.1987,0,-0.1962,-0.1963,-0.1962,-0.1965,-0.1966,-0.1966,-0.1969,-0.1969,-0.1971,-0.1973,-0.1974,-0.1977,-0.1979,-0.1979,-0.1981,-0.1979,-0.198,-0.1982,-0.1985,-0.1981,-0.1981,-0.198,-0.1986,-0.1986,-0.1986,-0.1986,0,0,-0.1956,-0.196,-0.1959,-0.1961,-0.1963,-0.1964,-0.1964,-0.1966,-0.1966,-0.1968,-0.1969,-0.197,-0.1972,-0.1973,-0.1976,-0.1975,-0.1972,-0.1978,-0.1978,-0.1977,-0.1971,-0.197,-0.1969,-0.1974,-0.1974,-0.1974,-0.1971,0,-0.1953,-0.1953,-0.1956,-0.1956,-0.1956,-0.196,-0.196,-0.1961,-0.1963,-0.1964,-0.1966,-0.1967,-0.197,-0.1971,-0.197,-0.1973,-0.1972,-0.1973,-0.1975,-0.1975,-0.1974,-0.1969,-0.1968,-0.1965,-0.1971,-0.1971,-0.1971,0,-0.1949,-0.1951,-0.195,-0.1953,-0.1954,-0.1954,-0.1955,-0.1956,-0.1958,-0.196,-0.1961,-0.1963,-0.1964,-0.1966,-0.1967,-0.1968,-0.1968,-0.197,-0.197,-0.197,-0.1973,-0.197,-0.1964,-0.1963,-0.197,-0.197,-0.197,0,-0.1945,-0.1947,-0.1947,-0.1948,-0.1951,-0.1951,-0.1952,-0.1954,-0.1955,-0.1956,-0.1957,-0.1959,-0.196,-0.1961,-0.1964,-0.1965,-0.1964,-0.1966,-0.1965,-0.1965,-0.1965,-0.1965,-0.196,-0.1965,-0.1965,-0.1965,-0.1965,0,-0.1942,-0.1941,-0.1945,-0.1945,-0.1945,-0.1948,-0.1948,-0.1949,-0.1951,-0.1952,-0.1954,-0.1955,-0.1958,-0.1959,-0.1961,-0.1962,-0.1962,-0.1963,-0.1964,-0.1963,-0.1963,-0.1964,-0.1964,-0.1965,-0.1965,-0.1965,-0.1965,0,-0.1937,-0.1939,-0.194,-0.1943,-0.1943,-0.1943,-0.1945,-0.1946,-0.1947,-0.1948,-0.1948,-0.1951,-0.1952,-0.1955,-0.1957,-0.1959,-0.1958,-0.1959,-0.1958,-0.1958,-0.1957,-0.1957,-0.1952,-0.1952,-0.1957,-0.1957,-0.1957,0,-0.1935,-0.1935,-0.1937,-0.1938,-0.1939,-0.194,-0.1941,-0.1943,-0.1944,-0.1946,-0.1946,-0.1947,-0.1948,-0.195,-0.1953,-0.1954,-0.1955,-0.1953,-0.1955,-0.1955,-0.1955,-0.1956,-0.1956,-0.1953,-0.1953,-0.1953,-0.1953,0,-0.1931,-0.1932,-0.1933,-0.1934,-0.1935,-0.1936,-0.1937,-0.1938,-0.1941,-0.1941,-0.1942,-0.1943,-0.1945,-0.1946,-0.1948,-0.1949,-0.1952,-0.1952,-0.1952,-0.1951,-0.1951,-0.1951,-0.1957,-0.1952,-0.1952,-0.1952,-0.1952,-0.1952,-0.1928,-0.1928,-0.193,-0.193,-0.1932,-0.1933,-0.1933,-0.1935,-0.1936,-0.1937,-0.1939,-0.194,-0.1941,-0.1944,-0.1945,-0.1946,-0.1947,-0.1947,-0.1947,-0.1947,-0.1947,-0.195,-0.1946,-0.1946,-0.1946,-0.1946,-0.1946,0,-0.1924,-0.1925,-0.1926,-0.1928,-0.1928,-0.193,-0.1931,-0.1932,-0.1933,-0.1934,-0.1935,-0.1936,-0.1937,-0.194,-0.1941,-0.1941,-0.1942,-0.1942,-0.1942,-0.1942,-0.1945,-0.1946,-0.1941,-0.1941,-0.1941,-0.1941,-0.1941,-0.1941,-0.1922,-0.1922,-0.1924,-0.1924,-0.1926,-0.1926,-0.1927,-0.1928,-0.1929,-0.193,-0.1931,-0.1933,-0.1934,-0.1936,-0.1937,-0.1938,-0.1938,-0.1937,-0.1938,-0.1941,-0.1942,-0.1942,-0.1943,-0.1937,-0.1937,-0.1935,-0.1935,-0.1935]},{"header":{"parameterUnit":"m.s-1","parameterCategory":1,"la1":30.2991,"la2":30.254,"lo1":-89.0895,"lo2":-89.0444,"dy":0.0017,"dx":0.0017,"nx":28,"ny":28,"refTime":"2024-10-01T03:00:00:Z","depth":0,"parameterNumber":3,"parameterNumberName":"V-component_of_WINDS"},"data":[0,0,0,0,0,0,0,0,0,0,0,0,0,0,0,0,0,0,0,0,0,0,0,0,0,0,0,0,0,0,0,0,0,0,0,0,0,0,0,0,0,0,0,0,0,0,0,0,0,0,0,0,0,0,0,0,0,0,-3.5869,-3.5869,0,-3.5919,-3.592,-3.592,-3.5906,-3.5905,-3.5904,-3.5903,-3.5951,-3.5953,-3.5955,0,0,0,0,0,0,0,0,0,0,0,0,0,-3.5758,-3.576,-3.5869,-3.5869,-3.587,-3.5919,-3.592,-3.592,-3.5906,-3.5905,-3.5904,-3.5903,-3.595,-3.5953,-3.5955,0,0,0,0,0,0,0,0,0,0,0,0,0,-3.5807,-3.576,-3.5869,-3.5869,-3.587,-3.5919,-3.592,-3.5921,-3.5907,-3.5905,-3.5904,-3.5902,-3.5949,-3.5953,-3.5956,-3.6007,0,0,-3.5966,-3.5967,0,0,0,0,0,0,0,0,-3.5804,-3.5811,-3.5868,-3.5869,-3.587,-3.5905,-3.5898,-3.5949,-3.5907,-3.5892,-3.5903,-3.5902,-3.5937,-3.5941,-3.5954,-3.6009,-3.6011,-3.5966,-3.5968,-3.597,-3.5971,0,0,0,0,0,0,0,-3.58,-3.5808,-3.5888,-3.5869,-3.587,-3.5866,-3.5871,-3.5908,-3.5922,-3.5894,-3.5893,-3.5899,-3.5937,-3.595,-3.5955,-3.6012,-3.5966,-3.5969,-3.5971,-3.5972,-3.6114,-3.6116,0,0,0,0,0,0,-3.5797,-3.5806,-3.5887,-3.589,-3.5833,-3.5869,-3.5875,-3.5895,-3.5922,-3.5925,-3.59,-3.5898,-3.5945,-3.5951,-3.5956,-3.602,-3.597,-3.5973,-3.5975,-3.6112,-3.6114,-3.6116,0,0,0,0,0,0,-3.5795,-3.5804,-3.5885,-3.5848,-3.5858,-3.5873,-3.5895,-3.5897,-3.5911,-3.5927,-3.5929,-3.5912,-3.5944,-3.5951,-3.5995,-3.6021,-3.5974,-3.5977,-3.611,-3.6113,-3.6115,-3.6146,0,0,0,0,0,0,-3.5791,-3.5804,-3.5824,-3.5848,-3.586,-3.5924,-3.5897,-3.5899,-3.5917,-3.5915,-3.5939,-3.5941,-3.5944,-3.599,-3.5998,-3.6025,-3.598,-3.6108,-3.6111,-3.6114,-3.6142,-3.6149,-3.6155,0,0,0,0,0,-3.5788,-3.5829,-3.5825,-3.5834,-3.5885,-3.5925,-3.5932,-3.5935,-3.5919,-3.5939,-3.595,-3.594,-3.6017,-3.5995,-3.6004,-3.6032,-3.6106,-3.611,-3.6114,-3.614,-3.6148,-3.6155,0,0,0,0,0,0,-3.5804,-3.5832,-3.5828,-3.5878,-3.59,-3.5923,-3.5948,-3.5943,-3.5969,-3.5966,-3.5968,-3.5973,-3.6019,-3.6029,-3.6004,-3.6083,-3.6059,-3.6065,-3.6075,-3.6083,-3.6089,-3.6086,-3.5983,0,0,0,0,0,-3.5814,-3.5846,-3.5867,-3.591,-3.5921,-3.5933,-3.595,-3.5952,-3.5974,-3.5982,-3.5996,-3.6017,-3.6046,-3.6065,-3.6092,-3.6144,-3.6149,-3.6167,-3.6173,-3.6178,-3.6184,-3.6214,-3.6223,-3.6129,-3.6129,-3.6129,0,0,-3.5834,-3.5853,-3.5872,-3.5914,-3.5931,-3.5963,-3.5941,-3.5975,-3.5999,-3.5987,-3.603,-3.6041,-3.6064,-3.6113,-3.6135,-3.6123,-3.6211,-3.6183,-3.6187,-3.619,-3.6219,-3.6228,-3.6236,-3.6132,-3.6131,-3.6131,0,0,-3.5888,-3.5905,-3.5943,-3.5962,-3.5988,-3.5996,-3.6006,-3.603,-3.6038,-3.6082,-3.6074,-3.6102,-3.6151,-3.6169,-3.6184,-3.6247,-3.624,-3.6256,-3.6288,-3.6318,-3.6325,-3.6332,-3.6356,-3.6365,-3.6261,-3.6261,-3.6261,0,-3.5909,-3.5959,-3.5963,-3.6,-3.6019,-3.6011,-3.6051,-3.6067,-3.6101,-3.6114,-3.61,-3.6164,-3.6179,-3.6233,-3.6249,-3.626,-3.6272,-3.6254,-3.6324,-3.6331,-3.6337,-3.636,-3.6369,-3.6263,-3.6263,-3.6263,-3.6262,0,-3.5984,-3.6019,-3.6047,-3.6082,-3.6104,-3.6141,-3.6151,-3.6173,-3.6172,-3.6182,-3.6227,-3.6245,-3.6277,-3.629,-3.6288,-3.6344,-3.6336,-3.6323,-3.6299,-3.6348,-3.637,-3.6378,-3.6266,-3.6265,-3.6265,-3.6264,0,0,-3.6049,-3.6089,-3.6099,-3.6117,-3.6147,-3.6173,-3.621,-3.6244,-3.6263,-3.6286,-3.6318,-3.6361,-3.635,-3.6368,-3.6369,-3.6394,-3.6446,-3.6379,-3.6379,-3.6392,-3.6511,-3.6522,-3.6532,-3.6441,-3.6443,-3.6444,-3.6509,0,-3.6107,-3.6175,-3.6181,-3.6242,-3.6275,-3.6269,-3.6302,-3.6324,-3.6334,-3.6363,-3.6373,-3.6405,-3.6386,-3.6398,-3.6423,-3.6434,-3.647,-3.6429,-3.6471,-3.6472,-3.6467,-3.6543,-3.6554,-3.6615,-3.6518,-3.6519,-3.652,0,-3.6184,-3.6213,-3.6278,-3.6306,-3.632,-3.6349,-3.6382,-3.6409,-3.6434,-3.6439,-3.646,-3.6458,-3.6497,-3.647,-3.6524,-3.6496,-3.6514,-3.6522,-3.6525,-3.653,-3.65,-3.6552,-3.6634,-3.6644,-3.6533,-3.6532,-3.6531,0,-3.6227,-3.6282,-3.6329,-3.6343,-3.6376,-3.6398,-3.6412,-3.6436,-3.6456,-3.6484,-3.6497,-3.6528,-3.6545,-3.6569,-3.6576,-3.6556,-3.663,-3.6603,-3.6636,-3.6636,-3.6653,-3.6652,-3.6741,-3.6661,-3.6661,-3.6661,-3.6661,0,-3.6292,-3.6332,-3.6349,-3.6378,-3.6424,-3.643,-3.6474,-3.6487,-3.6509,-3.654,-3.6536,-3.6565,-3.6571,-3.6601,-3.6606,-3.6651,-3.6658,-3.6664,-3.6665,-3.6665,-3.6665,-3.6678,-3.6674,-3.6663,-3.6663,-3.6662,-3.6662,0,-3.6349,-3.6362,-3.6413,-3.6441,-3.6449,-3.6481,-3.6505,-3.6533,-3.6543,-3.6583,-3.6592,-3.6608,-3.6643,-3.6652,-3.6693,-3.6697,-3.6751,-3.6747,-3.6743,-3.6744,-3.6777,-3.6774,-3.6878,-3.6893,-3.6802,-3.6802,-3.6803,0,-3.639,-3.6422,-3.6455,-3.6476,-3.6493,-3.6527,-3.6549,-3.6556,-3.6579,-3.6611,-3.6635,-3.6671,-3.67,-3.6757,-3.6771,-3.6803,-3.6801,-3.6836,-3.6806,-3.6806,-3.6804,-3.6803,-3.6807,-3.6842,-3.6843,-3.6843,-3.6844,0,-3.6463,-3.6469,-3.6501,-3.6537,-3.6564,-3.6591,-3.6617,-3.6635,-3.6646,-3.6672,-3.671,-3.6732,-3.6777,-3.6812,-3.6845,-3.6859,-3.6854,-3.6853,-3.6863,-3.6864,-3.6862,-3.6866,-3.6761,-3.6851,-3.685,-3.685,-3.6849,-3.6849,-3.6515,-3.6544,-3.6572,-3.6609,-3.6631,-3.6656,-3.6684,-3.6699,-3.6731,-3.677,-3.6771,-3.6813,-3.6838,-3.6883,-3.6899,-3.6931,-3.692,-3.6934,-3.6937,-3.6941,-3.6945,-3.6856,-3.6936,-3.6936,-3.6936,-3.6936,-3.6936,0,-3.659,-3.6608,-3.6642,-3.6681,-3.671,-3.6704,-3.6734,-3.6759,-3.6796,-3.6821,-3.685,-3.6895,-3.693,-3.6948,-3.6983,-3.7005,-3.7004,-3.7014,-3.7013,-3.7017,-3.6951,-3.6941,-3.7015,-3.7015,-3.7015,-3.7015,-3.7015,-3.7015,-3.6632,-3.6681,-3.6691,-3.6751,-3.6769,-3.6811,-3.6829,-3.6852,-3.6873,-3.6923,-3.6953,-3.6966,-3.6988,-3.7025,-3.7057,-3.7061,-3.7075,-3.7087,-3.7091,-3.7029,-3.7021,-3.7014,-3.7004,-3.709,-3.709,-3.7154,-3.7155,-3.7155]}]]